When you browse on this site, cookies collect data to enhance your experience and personalize the content and advertising you see.
Visit our Privacy Policy to learn more. By continuing to use the site, you agree to this use of cookies and data.
  • In Hungary
  • List of Countries
  • For 7 days
  • Water Temperature
  • Satellite Maps
  • Weather Map
  • News
  • Weather Widgets
  • user-avatar
    Login

    Hourly Weather Aran

    Today, 23 March, Saturday

    Time Temperature Precipitation Wind Pressure Humidity
    00:00 +12°C° 0 mm 2 mps 761 mmHg 32%
    01:00 +10°C° 0 mm 2 mps 761 mmHg 34%
    02:00 +10°C° 0 mm 2 mps 761 mmHg 35%
    03:00 +10°C° 0 mm 1 mps 761 mmHg 42%
    04:00 +10°C° 0 mm 1 mps 760 mmHg 43%
    05:00 +9°C° 0 mm 1 mps 760 mmHg 45%
    06:00 +9°C° 0 mm 1 mps 760 mmHg 47%
    07:00 +10°C° 0 mm 1 mps 759 mmHg 42%
    08:00 +10°C° 0 mm 2 mps 759 mmHg 37%
    09:00 +12°C° 0 mm 2 mps 758 mmHg 32%
    10:00 +12°C° 0 mm 3 mps 758 mmHg 31%
    11:00 +13°C° 0 mm 3 mps 757 mmHg 30%
    12:00 +14°C° 0 mm 4 mps 756 mmHg 28%
    13:00 +16°C° 0 mm 3 mps 755 mmHg 28%
    14:00 +16°C° 0 mm 3 mps 754 mmHg 28%
    15:00 +17°C° 0 mm 3 mps 754 mmHg 28%
    16:00 +16°C° 0 mm 2 mps 754 mmHg 29%
    17:00 +16°C° 0 mm 2 mps 754 mmHg 31%
    18:00 +15°C° 0 mm 2 mps 754 mmHg 33%
    19:00 +14°C° 0 mm 2 mps 754 mmHg 34%
    20:00 +14°C° 0 mm 2 mps 755 mmHg 35%
    21:00 +13°C° 0 mm 2 mps 755 mmHg 37%
    22:00 +13°C° 0 mm 2 mps 755 mmHg 37%
    23:00 +12°C° 0 mm 2 mps 755 mmHg 37%

    Tomorrow, 24 March, Sunday

    Time Temperature Precipitation Wind Pressure Humidity
    00:00 +12°C° 0 mm 2 mps 755 mmHg 37%
    01:00 +10°C° 0 mm 2 mps 754 mmHg 38%
    02:00 +10°C° 0 mm 2 mps 754 mmHg 38%
    03:00 +9°C° 0 mm 2 mps 754 mmHg 38%
    04:00 +9°C° 0 mm 2 mps 754 mmHg 38%
    05:00 +9°C° 0 mm 3 mps 754 mmHg 38%
    06:00 +9°C° 0 mm 3 mps 754 mmHg 39%
    07:00 +10°C° 0 mm 4 mps 754 mmHg 36%
    08:00 +12°C° 0 mm 4 mps 754 mmHg 34%
    09:00 +13°C° 0 mm 5 mps 754 mmHg 31%
    10:00 +14°C° 0 mm 5 mps 753 mmHg 30%
    11:00 +15°C° 0 mm 4 mps 753 mmHg 29%
    12:00 +17°C° 0 mm 4 mps 753 mmHg 28%
    13:00 +17°C° 0 mm 3 mps 753 mmHg 29%
    14:00 +18°C° 0 mm 3 mps 753 mmHg 29%
    15:00 +18°C° 0 mm 3 mps 752 mmHg 29%
    16:00 +17°C° 0 mm 3 mps 753 mmHg 32%
    17:00 +17°C° 0 mm 3 mps 753 mmHg 35%
    18:00 +16°C° 0 mm 3 mps 754 mmHg 38%
    19:00 +14°C° 0 mm 3 mps 754 mmHg 41%
    20:00 +14°C° 0 mm 3 mps 755 mmHg 44%
    21:00 +13°C° 0 mm 3 mps 755 mmHg 46%
    22:00 +13°C° 0 mm 3 mps 755 mmHg 48%
    23:00 +12°C° 0 mm 3 mps 756 mmHg 50%

    Day after tomorrow, 25 March, Monday

    Time Temperature Precipitation Wind Pressure Humidity
    00:00 +11°C° 0 mm 3 mps 756 mmHg 52%
    01:00 +11°C° 0 mm 3 mps 755 mmHg 53%
    02:00 +11°C° 0 mm 3 mps 755 mmHg 55%
    03:00 +10°C° 0 mm 2 mps 755 mmHg 56%
    04:00 +10°C° 0.1 mm 2 mps 755 mmHg 58%
    05:00 +11°C° 0.1 mm 1 mps 755 mmHg 60%
    06:00 +10°C° 0.1 mm 1 mps 756 mmHg 62%
    07:00 +10°C° 0.2 mm 1 mps 756 mmHg 64%
    08:00 +10°C° 0.2 mm 1 mps 756 mmHg 66%
    09:00 +10°C° 0.2 mm 1 mps 756 mmHg 68%
    10:00 +10°C° 0.1 mm 2 mps 755 mmHg 69%
    11:00 +10°C° 0.1 mm 3 mps 755 mmHg 69%
    12:00 +10°C° 0.1 mm 5 mps 755 mmHg 69%
    13:00 +9°C° 0.4 mm 5 mps 754 mmHg 70%
    14:00 +9°C° 0.4 mm 6 mps 754 mmHg 71%
    15:00 +8°C° 0.4 mm 7 mps 754 mmHg 71%
    16:00 +8°C° 0.3 mm 7 mps 755 mmHg 72%
    17:00 +8°C° 0.3 mm 7 mps 755 mmHg 72%
    18:00 +6°C° 0.3 mm 7 mps 756 mmHg 72%
    19:00 +7°C° 0.2 mm 6 mps 756 mmHg 73%
    20:00 +7°C° 0.2 mm 6 mps 757 mmHg 74%
    21:00 +7°C° 0.2 mm 6 mps 757 mmHg 75%
    22:00 +7°C° 0.2 mm 5 mps 757 mmHg 76%
    23:00 +6°C° 0.2 mm 5 mps 757 mmHg 77%

    26 March, Tuesday

    Time Temperature Precipitation Wind Pressure Humidity
    00:00 +6°C° 0.2 mm 5 mps 757 mmHg 78%
    01:00 +6°C° 0 mm 4 mps 757 mmHg 79%
    02:00 +7°C° 0 mm 3 mps 757 mmHg 81%
    03:00 +7°C° 0 mm 3 mps 757 mmHg 82%
    04:00 +6°C° 0 mm 2 mps 757 mmHg 83%
    05:00 +6°C° 0 mm 2 mps 757 mmHg 84%
    06:00 +6°C° 0 mm 2 mps 758 mmHg 85%
    07:00 +7°C° 0 mm 2 mps 758 mmHg 78%
    08:00 +8°C° 0 mm 3 mps 758 mmHg 72%
    09:00 +9°C° 0 mm 3 mps 758 mmHg 65%
    10:00 +11°C° 0 mm 4 mps 757 mmHg 61%
    11:00 +12°C° 0 mm 5 mps 757 mmHg 57%
    12:00 +13°C° 0 mm 6 mps 757 mmHg 52%
    13:00 +14°C° 0 mm 6 mps 756 mmHg 51%
    14:00 +14°C° 0 mm 6 mps 756 mmHg 50%
    15:00 +14°C° 0 mm 6 mps 755 mmHg 49%
    16:00 +14°C° 0 mm 5 mps 755 mmHg 52%
    17:00 +13°C° 0 mm 5 mps 755 mmHg 55%
    18:00 +12°C° 0 mm 4 mps 755 mmHg 58%
    19:00 +12°C° 0 mm 4 mps 755 mmHg 61%
    20:00 +11°C° 0 mm 3 mps 756 mmHg 64%
    21:00 +11°C° 0 mm 3 mps 756 mmHg 67%
    22:00 +10°C° 0 mm 3 mps 756 mmHg 69%
    23:00 +10°C° 0 mm 4 mps 756 mmHg 71%

    27 March, Wednesday

    Time Temperature Precipitation Wind Pressure Humidity
    00:00 +8°C° 0 mm 4 mps 756 mmHg 72%
    01:00 +9°C° 0 mm 3 mps 755 mmHg 74%
    02:00 +8°C° 0 mm 3 mps 755 mmHg 76%
    03:00 +8°C° 0 mm 2 mps 755 mmHg 77%
    04:00 +8°C° 0 mm 2 mps 755 mmHg 79%
    05:00 +9°C° 0 mm 1 mps 755 mmHg 81%
    06:00 +8°C° 0 mm 1 mps 755 mmHg 83%
    07:00 +10°C° 0 mm 1 mps 754 mmHg 77%
    08:00 +10°C° 0 mm 2 mps 754 mmHg 71%
    09:00 +12°C° 0 mm 2 mps 754 mmHg 65%
    10:00 +12°C° 0 mm 3 mps 754 mmHg 59%
    11:00 +14°C° 0 mm 3 mps 754 mmHg 53%
    12:00 +17°C° 0 mm 3 mps 753 mmHg 46%
    13:00 +18°C° 0 mm 3 mps 753 mmHg 42%
    14:00 +19°C° 0 mm 2 mps 753 mmHg 38%
    15:00 +20°C° 0 mm 2 mps 753 mmHg 34%
    16:00 +19°C° 0 mm 3 mps 754 mmHg 39%
    17:00 +18°C° 0 mm 3 mps 755 mmHg 43%
    18:00 +17°C° 0 mm 4 mps 755 mmHg 47%
    19:00 +15°C° 0 mm 4 mps 756 mmHg 52%
    20:00 +15°C° 0 mm 4 mps 757 mmHg 58%
    21:00 +14°C° 0 mm 4 mps 757 mmHg 63%
    22:00 +13°C° 0 mm 3 mps 758 mmHg 66%
    23:00 +12°C° 0 mm 3 mps 758 mmHg 70%

    28 March, Thursday

    Time Temperature Precipitation Wind Pressure Humidity
    00:00 +13°C° 0 mm 2 mps 758 mmHg 73%
    01:00 +12°C° 0.1 mm 2 mps 758 mmHg 75%
    02:00 +12°C° 0.1 mm 2 mps 758 mmHg 77%
    03:00 +12°C° 0.1 mm 2 mps 758 mmHg 79%
    04:00 +10°C° 0 mm 2 mps 759 mmHg 81%
    05:00 +11°C° 0 mm 1 mps 759 mmHg 84%
    06:00 +11°C° 0 mm 1 mps 760 mmHg 87%
    07:00 +11°C° 0 mm 1 mps 760 mmHg 84%
    08:00 +12°C° 0 mm 2 mps 760 mmHg 81%
    09:00 +13°C° 0 mm 2 mps 760 mmHg 78%
    10:00 +13°C° 0.1 mm 2 mps 759 mmHg 75%
    11:00 +13°C° 0.1 mm 3 mps 759 mmHg 72%
    12:00 +13°C° 0.1 mm 3 mps 758 mmHg 69%
    13:00 +13°C° 0.1 mm 4 mps 758 mmHg 66%
    14:00 +14°C° 0.1 mm 4 mps 757 mmHg 63%
    15:00 +14°C° 0.1 mm 4 mps 757 mmHg 60%
    16:00 +14°C° 0.1 mm 4 mps 757 mmHg 62%
    17:00 +14°C° 0.1 mm 4 mps 757 mmHg 64%
    18:00 +13°C° 0.1 mm 4 mps 757 mmHg 66%
    19:00 +13°C° 0.2 mm 4 mps 758 mmHg 66%
    20:00 +12°C° 0.2 mm 4 mps 758 mmHg 67%
    21:00 +12°C° 0.2 mm 4 mps 758 mmHg 67%
    22:00 +11°C° 0.2 mm 4 mps 758 mmHg 68%
    23:00 +11°C° 0.2 mm 4 mps 758 mmHg 69%
    Show more